Colby, KS

8:14 AM CST on February 10, 2016 (GMT -0600)
Shaltz

Weather History for KCBK - November, 2012

Change the Weather History Date:

Thursday, November 8, 2012

  Actual Average (KGLD) Record (KGLD)
Temperature  
Mean Temperature 46 °F 43 °F  
Max Temperature 64 °F 56 °F 83 °F (1934)
Min Temperature 28 °F 29 °F 16 °F (1955)
Degree Days  
Heating Degree Days 19 22  
Month to date heating degree days 166  
Since 1 July heating degree days 706  
Cooling Degree Days 0 0  
Month to date cooling degree days 0  
Year to date cooling degree days 941  
Moisture  
Dew Point 33 °F    
Average Humidity 62    
Maximum Humidity 100    
Minimum Humidity 34    
Precipitation  
Precipitation 0.00 in 0.03 in 0.41 in (1970)
Month to date precipitation 0.24  
Year to date precipitation 18.73  
Snow  
Snow - 0.10 in - ()
Month to date snowfall 1.0  
Since 1 July snowfall 3.6  
Since 1 September snowfall 3.6  
Snow Depth -    
Sea Level Pressure  
Sea Level Pressure 29.87 in    
Wind  
Wind Speed 7 mph ()    
Max Wind Speed 18 mph    
Max Gust Speed 23 mph    
Visibility 10.0 miles    
Events      
T = Trace of Precipitation, MM = Missing Value Source: Averaged Metar Reports

Daily Weather History Graph

Daily Weather History Graph

Search for Another Location

Airport or City:

Trip Planner

Search our weather history database for the weather conditions in past years. The results will help you decide how hot, cold, wet, or windy it might be!

Date:

Astronomy

Nov. 08, 2012 Rise Set
Actual Time 7:20 AM CST 5:34 PM CST
Civil Twilight 6:52 AM CST 6:03 PM CST
Nautical Twilight 6:20 AM CST 6:35 PM CST
Astronomical Twilight 5:48 AM CST 7:06 PM CST
Moon 1:19 AM CST (11/8) 2:15 PM CST (11/8)
Length of Visible Light 11h 10m
Length of Day
10h 14m
Waning Crescent, 32% of the Moon is Illuminated
Nov 8
Waning Crescent
Nov 13
New
Nov 20
First Quarter
Nov 28
Full
Dec 6
Last Quarter

Hourly Weather History & Observations

Time (CST) Temp. Windchill Dew Point Humidity Pressure Visibility Wind Dir Wind Speed Gust Speed Precip Events Conditions
12:15 AM 42.8 °F 37.0 °F 33.8 °F 70% 29.89 in 10.0 mi SSE 10.4 mph - N/A   Clear
12:35 AM 42.8 °F 38.0 °F 33.8 °F 70% 29.88 in 10.0 mi South 8.1 mph - N/A   Clear
12:55 AM 42.8 °F 38.6 °F 33.8 °F 70% 29.89 in 10.0 mi South 6.9 mph - N/A   Clear
1:15 AM 42.8 °F 41.1 °F 33.8 °F 70% 29.89 in 10.0 mi South 3.5 mph - N/A   Clear
1:35 AM 41.0 °F - 33.8 °F 76% 29.88 in 10.0 mi Calm Calm - N/A   Clear
1:55 AM 39.2 °F - 33.8 °F 81% 29.88 in 10.0 mi Calm Calm - N/A   Clear
2:15 AM 39.2 °F 35.9 °F 33.8 °F 81% 29.88 in 10.0 mi SE 4.6 mph - N/A   Clear
2:35 AM 37.4 °F 34.9 °F 32.0 °F 81% 29.87 in 10.0 mi SSE 3.5 mph - N/A   Clear
2:55 AM 37.4 °F - 32.0 °F 81% 29.87 in 10.0 mi Calm Calm - N/A   Clear
3:15 AM 37.4 °F 34.9 °F 32.0 °F 81% 29.87 in 10.0 mi West 3.5 mph - N/A   Clear
3:35 AM 33.8 °F 28.6 °F 32.0 °F 93% 29.86 in 10.0 mi West 5.8 mph - N/A   Clear
3:55 AM 33.8 °F 29.6 °F 32.0 °F 93% 29.86 in 10.0 mi West 4.6 mph - N/A   Clear
4:15 AM 33.8 °F 29.6 °F 32.0 °F 93% 29.86 in 10.0 mi WSW 4.6 mph - N/A   Clear
4:35 AM 32.0 °F - 28.4 °F 87% 29.86 in 10.0 mi Calm Calm - N/A   Clear
4:55 AM 30.2 °F 23.4 °F 28.4 °F 93% 29.85 in 10.0 mi SW 6.9 mph - N/A   Clear
5:15 AM 32.0 °F 22.1 °F 30.2 °F 93% 29.87 in 10.0 mi NW 13.8 mph 19.6 mph N/A   Clear
5:55 AM 32.0 °F 24.2 °F 30.2 °F 93% 29.87 in 10.0 mi WNW 9.2 mph - N/A   Clear
6:15 AM 32.0 °F 26.4 °F 30.2 °F 93% 29.86 in 10.0 mi WNW 5.8 mph - N/A   Clear
6:55 AM 28.4 °F 24.6 °F 28.4 °F 100% 29.86 in 10.0 mi West 3.5 mph - N/A   Clear
7:15 AM 30.2 °F 24.3 °F 28.4 °F 93% 29.86 in 10.0 mi WNW 5.8 mph - N/A   Clear
7:35 AM 30.2 °F 23.4 °F 30.2 °F 100% 29.87 in 10.0 mi West 6.9 mph - N/A   Clear
7:55 AM 33.8 °F 27.7 °F 32.0 °F 93% 29.87 in 10.0 mi WNW 6.9 mph - N/A   Clear
8:15 AM 35.6 °F 29.2 °F 32.0 °F 87% 29.88 in 10.0 mi West 8.1 mph - N/A   Clear
8:35 AM 39.2 °F 32.5 °F 33.8 °F 81% 29.88 in 10.0 mi WNW 10.4 mph - N/A   Clear
8:55 AM 44.6 °F 39.2 °F 35.6 °F 71% 29.89 in 10.0 mi NW 10.4 mph - N/A   Clear
9:15 AM 48.2 °F - 35.6 °F 62% 29.90 in 10.0 mi NNW 12.7 mph - N/A   Clear
9:35 AM 53.6 °F - 35.6 °F 51% 29.90 in 10.0 mi NNW 9.2 mph - N/A   Clear
9:55 AM 55.4 °F - 35.6 °F 47% 29.90 in 10.0 mi NNW 16.1 mph - N/A   Clear
10:35 AM 55.4 °F - 33.8 °F 44% 29.91 in 10.0 mi North 16.1 mph 21.9 mph N/A   Clear
10:55 AM 57.2 °F - 33.8 °F 41% 29.91 in 10.0 mi NNW 18.4 mph 21.9 mph N/A   Clear
11:15 AM 59.0 °F - 33.8 °F 39% 29.91 in 10.0 mi North 17.3 mph 23.0 mph N/A   Clear
11:35 AM 59.0 °F - 33.8 °F 39% 29.90 in 10.0 mi North 17.3 mph - N/A   Clear
11:55 AM 60.8 °F - 33.8 °F 36% 29.89 in 10.0 mi North 16.1 mph 20.7 mph N/A   Clear
12:15 PM 60.8 °F - 35.6 °F 39% 29.88 in 10.0 mi North 18.4 mph 23.0 mph N/A   Clear
12:35 PM 62.6 °F - 35.6 °F 37% 29.88 in 10.0 mi NNW 15.0 mph 23.0 mph N/A   Clear
12:55 PM 62.6 °F - 35.6 °F 37% 29.87 in 10.0 mi NNW 15.0 mph - N/A   Clear
1:15 PM 64.4 °F - 35.6 °F 34% 29.86 in 10.0 mi North 17.3 mph 21.9 mph N/A   Clear
1:35 PM 64.4 °F - 35.6 °F 34% 29.85 in 10.0 mi North 17.3 mph - N/A   Clear
1:55 PM 64.4 °F - 35.6 °F 34% 29.85 in 10.0 mi North 16.1 mph 19.6 mph N/A   Clear
2:15 PM 64.4 °F - 37.4 °F 37% 29.85 in 10.0 mi North 15.0 mph 21.9 mph N/A   Clear
2:35 PM 64.4 °F - 37.4 °F 37% 29.85 in 10.0 mi North 12.7 mph 20.7 mph N/A   Clear
2:55 PM 64.4 °F - 37.4 °F 37% 29.85 in 10.0 mi NNE 13.8 mph 17.3 mph N/A   Clear
3:15 PM 64.4 °F - 35.6 °F 34% 29.86 in 10.0 mi NNE 11.5 mph - N/A   Clear
3:35 PM 64.4 °F - 35.6 °F 34% 29.86 in 10.0 mi NNE 12.7 mph - N/A   Clear
3:55 PM 64.4 °F - 37.4 °F 37% 29.86 in 10.0 mi NNE 8.1 mph - N/A   Clear
4:15 PM 64.4 °F - 37.4 °F 37% 29.86 in 10.0 mi NNE 9.2 mph - N/A   Clear
4:35 PM 62.6 °F - 35.6 °F 37% 29.86 in 10.0 mi NE 12.7 mph - N/A   Clear
4:55 PM 62.6 °F - 35.6 °F 37% 29.86 in 10.0 mi NE 8.1 mph - N/A   Clear
5:15 PM 59.0 °F - 33.8 °F 39% 29.87 in 10.0 mi NE 8.1 mph - N/A   Clear
5:35 PM 53.6 °F - 33.8 °F 47% 29.88 in 10.0 mi NE 6.9 mph - N/A   Clear
5:55 PM 53.6 °F - 33.8 °F 47% 29.88 in 10.0 mi NE 6.9 mph - N/A   Clear
6:15 PM 51.8 °F - 32.0 °F 47% 29.88 in 10.0 mi ENE 8.1 mph - N/A   Clear
6:35 PM 48.2 °F - 32.0 °F 54% 29.88 in 10.0 mi ENE 9.2 mph - N/A   Clear
6:55 PM 46.4 °F 41.9 °F 32.0 °F 57% 29.88 in 10.0 mi East 9.2 mph - N/A   Clear
7:15 PM 46.4 °F 43.5 °F 32.0 °F 57% 29.89 in 10.0 mi ESE 5.8 mph - N/A   Clear
7:35 PM 44.6 °F 39.7 °F 32.0 °F 61% 29.87 in 10.0 mi ENE 9.2 mph - N/A   Clear
7:55 PM 44.6 °F 43.1 °F 32.0 °F 61% 29.88 in 10.0 mi ESE 3.5 mph - N/A   Clear
8:15 PM 44.6 °F - 32.0 °F 61% 29.88 in 10.0 mi Calm Calm - N/A   Clear
8:35 PM 44.6 °F 43.1 °F 32.0 °F 61% 29.87 in 10.0 mi ENE 3.5 mph - N/A   Clear
8:55 PM 46.4 °F 43.5 °F 32.0 °F 57% 29.87 in 10.0 mi ENE 5.8 mph - N/A   Clear
9:15 PM 46.4 °F 43.5 °F 32.0 °F 57% 29.87 in 10.0 mi East 5.8 mph - N/A   Clear
9:35 PM 46.4 °F - 32.0 °F 57% 29.87 in 10.0 mi Calm Calm - N/A   Clear
9:55 PM 41.0 °F 38.0 °F 32.0 °F 70% 29.88 in 10.0 mi South 4.6 mph - N/A   Clear
10:15 PM 42.8 °F 39.3 °F 32.0 °F 66% 29.86 in 10.0 mi NE 5.8 mph - N/A   Clear
10:35 PM 41.0 °F 39.0 °F 32.0 °F 70% 29.86 in 10.0 mi North 3.5 mph - N/A   Clear
10:55 PM 37.4 °F 34.9 °F 30.2 °F 75% 29.86 in 10.0 mi South 3.5 mph - N/A   Clear
11:15 PM 37.4 °F - 32.0 °F 81% 29.85 in 10.0 mi Calm Calm - N/A   Clear
11:35 PM 42.8 °F 41.1 °F 32.0 °F 66% 29.84 in 10.0 mi ENE 3.5 mph - N/A   Clear
11:55 PM 42.8 °F 39.3 °F 32.0 °F 66% 29.83 in 10.0 mi East 5.8 mph - N/A   Clear